{"data":{"norad_id":53477,"intl_designator":"2022-099N","name":"STARLINK-4412","alt_names":[],"object_type":"PAYLOAD","status":"ACTIVE","operator":null,"country":"US","launch_date":"2022-08-12","launch_site_code":"AFWTR","launch_vehicle":null,"mission":null,"orbit_class":"UNKNOWN","rcs_meters":null,"size_class":null,"mass_kg":null,"dimensions":null,"purposes":["comms"],"wikipedia_slug":null,"has_3d_model":false,"image_url":null,"decayed_at":null,"tle_current":{"epoch":"2026-05-25T06:00:02.000160Z","epoch_age_seconds":53173,"freshness":"FRESH","line1":"1 53477U 22099N   26145.25002315  .00168788  00000+0  37597-2 0  9994","line2":"2 53477  97.6022 267.2963 0001041  71.6812   6.8969 15.42953942  5894","mean_motion":15.42953942,"eccentricity":0.0001041,"inclination_deg":97.6022,"raan_deg":267.2963,"arg_perigee_deg":71.6812,"mean_anomaly_deg":6.8969,"bstar":0.0037597,"rev_number":589,"period_min":93.327477950084,"perigee_km":436.68715410786,"apogee_km":438.10614821403,"semimajor_km":6815.5336511609,"source":"CELESTRAK","updated_at":"2026-05-25T13:38:17.431774Z"}}}